This is the latest recevied weather packets stored in our database for station/object KD4EG. If no packets are shown the sender has not sent any weather packets the latest 10 day(s).
| Time | Temp. | Humidity | Pressure | Rain* | Wind** | Luminosity | Snow |
|---|---|---|---|---|---|---|---|
| 1777731893 | 11.11° C | 50% | 1016.8 hPa | 0 mm | - | 310 W/m² | - |
| 1777731590 | 11.11° C | 50% | 1017 hPa | 0 mm | - | 282 W/m² | - |
| 1777731288 | 11.11° C | 51% | 1016.9 hPa | 0 mm | - | 256 W/m² | - |
| 1777730985 | 11.11° C | 51% | 1016.9 hPa | 0 mm | - | 265 W/m² | - |
| 1777730683 | 10.56° C | 50% | 1017 hPa | 0 mm | - | 245 W/m² | - |
| 1777730379 | 11.11° C | 50% | 1016.8 hPa | 0 mm | - | 257 W/m² | - |
| 1777730075 | 11.11° C | 50% | 1016.9 hPa | 0 mm | - | 240 W/m² | - |
| 1777729772 | 10.56° C | 52% | 1017 hPa | 0 mm | - | 217 W/m² | - |
| 1777729469 | 10.56° C | 52% | 1017.3 hPa | 0 mm | - | 193 W/m² | - |
| 1777729166 | 10.56° C | 52% | 1016.9 hPa | 0 mm | - | 195 W/m² | - |
| 1777728862 | 10.56° C | 51% | 1017.3 hPa | 0 mm | - | 200 W/m² | - |
| 1777728559 | 10.56° C | 52% | 1017.2 hPa | 0 mm | - | 181 W/m² | - |
| 1777728256 | 10° C | 52% | 1017 hPa | 0 mm | - | 184 W/m² | - |
| 1777727954 | 10° C | 51% | 1017.1 hPa | 0 mm | - | 190 W/m² | - |
| 1777727650 | 10° C | 51% | 1017.2 hPa | 0 mm | - | 157 W/m² | - |
| 1777727347 | 10° C | 52% | 1017 hPa | 0 mm | - | 138 W/m² | - |
| 1777727045 | 10° C | 52% | 1016.8 hPa | 0 mm | - | 117 W/m² | - |
| 1777726742 | 10° C | 52% | 1016.8 hPa | 0 mm | - | 111 W/m² | - |
| 1777726439 | 10° C | 54% | 1016.6 hPa | 0 mm | - | 120 W/m² | - |
| 1777725833 | 10° C | 54% | 1016.6 hPa | 0 mm | - | 113 W/m² | - |
| 1777725530 | 10° C | 54% | 1016.7 hPa | 0 mm | - | 115 W/m² | - |
| 1777725227 | 9.44° C | 54% | 1016.7 hPa | 0 mm | - | 106 W/m² | - |
| 1777724925 | 9.44° C | 54% | 1016.8 hPa | 0 mm | - | 101 W/m² | - |
| 1777724319 | 9.44° C | 55% | 1017.1 hPa | 0 mm | - | 92 W/m² | - |
| 1777723713 | 9.44° C | 55% | 1016.8 hPa | 0 mm | - | 77 W/m² | - |
* Rain latest hour (hover to see other rain measurements)
** Current wind speed in m/s (hover to see current wind gust speed)